User: anonymous   Login
Location: San Martino di Castrozza
(46.2667°N, 11.8000°E)
Time: 04:46:31
(UTC+00:00)
Language:

Cosmos 1805 - Orbit

View from above orbital plane
View from above orbital plane
View from above satellite
View from above satellite

Ground track
Ground track

The orbit data is extracted from the following two-line orbital elements,

1 17191U 86097A   21171.33753213  .00001073  00000-0  59022-4 0  9991
2 17191  82.4742  26.0268 0006240  75.5659 284.6264 15.13025343884943
Epoch (UTC): 20 June 2021 08:06:02
Eccentricity: 0.0006240
inclination: 82.4742°
perigee height: 522 km
apogee height: 531 km
right ascension of ascending node: 26.0268°
argument of perigee: 75.5659°
revolutions per day: 15.13025343
mean anomaly at epoch: 284.6264°
orbit number at epoch: 88494

The dashed part of the orbit path shows where the satellite is in the earth's shadow,  

DLR